CW7375 Weather Reports


Display with metric or nautical units.
time (UTC)temp
F
wind
direction
speed
MPH
gust
MPH
rain 1hr
in
rain 24hr
in
rain mn
in
humidity
%
barometer
mb
20200222134623 26 1 0.0 1.0 0.00 0.00 0.00 79 1028.6
20200222134128 25 1 0.0 2.0 0.00 0.00 0.00 81 1028.6
20200222133621 25 1 0.0 2.0 0.00 0.00 0.00 83 1028.6
20200222133132 24 1 0.0 0.0 0.00 0.00 0.00 84 1028.6
20200222132622 23 1 0.0 0.0 0.00 0.00 0.00 85 1028.6
20200222132128 22 1 0.0 0.0 0.00 0.00 0.00 86 1028.5
20200222131622 21 1 0.0 0.0 0.00 0.00 0.00 88 1028.4
20200222131132 21 1 0.0 1.0 0.00 0.00 0.00 89 1028.3
20200222130617 20 1 0.0 1.0 0.00 0.00 0.00 89 1028.2
20200222130126 20 1 0.0 0.0 0.00 0.00 0.00 89 1028.2
20200222125636 19 1 0.0 0.0 0.00 0.00 0.00 89 1028.1
20200222125122 19 1 0.0 0.0 0.00 0.00 0.00 89 1028.1
20200222124628 19 1 0.0 0.0 0.00 0.00 0.00 89 1028.0
20200222124139 18 1 0.0 0.0 0.00 0.00 0.00 89 1028.0
20200222123628 18 1 0.0 0.0 0.00 0.00 0.00 89 1027.9
20200222123133 18 1 0.0 0.0 0.00 0.00 0.00 89 1028.0
20200222122623 18 1 0.0 1.0 0.00 0.00 0.00 89 1027.9
20200222122130 17 1 0.0 1.0 0.00 0.00 0.00 89 1027.9
20200222121636 17 1 0.0 1.0 0.00 0.00 0.00 88 1027.9
20200222121140 17 1 0.0 0.0 0.00 0.00 0.00 88 1027.9
20200222120623 17 1 0.0 0.0 0.00 0.00 0.00 88 1027.9
20200222120130 17 1 0.0 0.0 0.00 0.00 0.00 89 1027.9
20200222115617 17 1 0.0 0.0 0.00 0.00 0.00 88 1027.8
20200222115126 17 1 0.0 0.0 0.00 0.00 0.00 88 1027.7
20200222114637 17 1 0.0 0.0 0.00 0.00 0.00 88 1027.7
20200222114124 17 1 0.0 0.0 0.00 0.00 0.00 88 1027.7
20200222113630 17 1 0.0 0.0 0.00 0.00 0.00 88 1027.6
20200222113123 17 1 0.0 0.0 0.00 0.00 0.00 87 1027.6
20200222112634 18 1 0.0 0.0 0.00 0.00 0.00 87 1027.8
20200222112121 18 1 0.0 0.0 0.00 0.00 0.00 87 1027.8
20200222111630 18 1 0.0 0.0 0.00 0.00 0.00 87 1027.9
20200222111137 18 18 0.0 0.0 0.00 0.00 0.00 87 1027.8
20200222110623 18 18 0.0 0.0 0.00 0.00 0.00 87 1027.7
20200222110133 18 18 0.0 0.0 0.00 0.00 0.00 87 1027.6
20200222105622 18 17 0.0 0.0 0.00 0.00 0.00 87 1027.5
20200222105129 18 17 0.0 0.0 0.00 0.00 0.00 86 1027.5
20200222104635 18 18 0.0 1.0 0.00 0.00 0.00 86 1027.5
20200222104121 18 18 0.0 0.0 0.00 0.00 0.00 86 1027.6
20200222103630 18 18 0.0 1.0 0.00 0.00 0.00 86 1027.4
20200222103137 19 21 0.0 1.0 0.00 0.00 0.00 86 1027.5
20200222102623 18 71 0.0 0.0 0.00 0.00 0.00 86 1027.4
20200222102132 18 71 0.0 0.0 0.00 0.00 0.00 87 1027.5
20200222101623 18 72 0.0 0.0 0.00 0.00 0.00 87 1027.6
20200222101135 18 71 0.0 0.0 0.00 0.00 0.00 87 1027.5
20200222100622 18 71 0.0 0.0 0.00 0.00 0.00 87 1027.4
20200222100126 18 71 0.0 0.0 0.00 0.00 0.00 87 1027.5
20200222095635 18 70 0.0 0.0 0.00 0.00 0.00 87 1027.4
20200222095122 18 71 0.0 0.0 0.00 0.00 0.00 87 1027.3
20200222094631 18 71 0.0 0.0 0.00 0.00 0.00 88 1027.2
20200222094122 18 71 0.0 0.0 0.00 0.00 0.00 87 1027.2
20200222093629 18 71 0.0 0.0 0.00 0.00 0.00 87 1027.2
20200222093136 19 71 0.0 0.0 0.00 0.00 0.00 87 1027.2
20200222092624 19 71 0.0 0.0 0.00 0.00 0.00 87 1027.2
20200222092130 19 71 0.0 0.0 0.00 0.00 0.00 86 1027.2
20200222091619 19 71 0.0 0.0 0.00 0.00 0.00 86 1027.3
20200222091133 19 71 0.0 0.0 0.00 0.00 0.00 85 1027.2
20200222090621 19 71 0.0 0.0 0.00 0.00 0.00 85 1027.2
20200222090128 19 71 0.0 0.0 0.00 0.00 0.00 85 1027.3
20200222085632 19 72 0.0 0.0 0.00 0.00 0.00 86 1027.3
20200222085139 19 70 0.0 0.0 0.00 0.00 0.00 86 1027.3
20200222084625 19 71 0.0 0.0 0.00 0.00 0.00 85 1027.4
20200222084116 19 71 0.0 0.0 0.00 0.00 0.00 85 1027.3
20200222083628 19 71 0.0 0.0 0.00 0.00 0.00 85 1027.3
20200222083135 19 71 0.0 0.0 0.00 0.00 0.00 85 1027.3
20200222082621 19 71 0.0 0.0 0.00 0.00 0.00 84 1027.4
20200222082129 19 71 0.0 0.0 0.00 0.00 0.00 84 1027.4
20200222081635 19 71 0.0 0.0 0.00 0.00 0.00 84 1027.4
20200222081123 20 71 0.0 0.0 0.00 0.00 0.00 84 1027.6
20200222080630 20 70 0.0 0.0 0.00 0.00 0.00 83 1027.6
20200222080119 20 70 0.0 0.0 0.00 0.00 0.00 82 1027.6
20200222075630 20 71 0.0 0.0 0.00 0.00 0.00 83 1027.7
20200222075126 20 71 0.0 0.0 0.00 0.00 0.00 83 1027.8
20200222074633 20 70 0.0 0.0 0.00 0.00 0.00 83 1027.8
20200222074118 20 70 0.0 0.0 0.00 0.00 0.00 82 1027.9
20200222073626 20 71 0.0 0.0 0.00 0.00 0.00 82 1027.9
20200222073118 20 70 0.0 0.0 0.00 0.00 0.00 82 1028.0
20200222072631 20 70 0.0 0.0 0.00 0.00 0.00 82 1028.1
20200222072138 20 70 0.0 0.0 0.00 0.00 0.00 83 1028.2
20200222071624 20 70 0.0 0.0 0.00 0.00 0.00 83 1028.3
20200222071119 20 70 0.0 0.0 0.00 0.00 0.00 82 1028.3
20200222070631 20 70 0.0 0.0 0.00 0.00 0.00 83 1028.3
20200222070117 20 70 0.0 0.0 0.00 0.00 0.00 83 1028.3
20200222065626 20 71 0.0 0.0 0.00 0.00 0.00 82 1028.4
20200222065133 20 70 0.0 0.0 0.00 0.00 0.00 82 1028.3
20200222064639 21 70 0.0 0.0 0.00 0.00 0.00 82 1028.4
20200222064123 21 70 0.0 0.0 0.00 0.00 0.00 81 1028.3
20200222063635 21 70 0.0 0.0 0.00 0.00 0.00 80 1028.4
20200222063120 21 71 0.0 0.0 0.00 0.00 0.00 80 1028.4
20200222062630 22 70 0.0 0.0 0.00 0.00 0.00 78 1028.6
20200222062121 22 71 0.0 0.0 0.00 0.00 0.00 77 1028.4
20200222061630 22 71 0.0 0.0 0.00 0.00 0.00 76 1028.5
20200222061138 22 71 0.0 0.0 0.00 0.00 0.00 77 1028.5
20200222060623 22 71 0.0 0.0 0.00 0.00 0.00 76 1028.4
20200222060129 22 71 0.0 0.0 0.00 0.00 0.00 76 1028.3
20200222055636 22 71 0.0 0.0 0.00 0.00 0.00 77 1028.4
20200222055122 22 71 0.0 0.0 0.00 0.00 0.00 77 1028.6
20200222054631 22 71 0.0 0.0 0.00 0.00 0.00 78 1028.6
20200222054130 22 71 0.0 0.0 0.00 0.00 0.00 77 1028.7
20200222053635 22 71 0.0 0.0 0.00 0.00 0.00 77 1028.7
20200222053125 22 71 0.0 0.0 0.00 0.00 0.00 79 1028.8
20200222052632 21 71 0.0 0.0 0.00 0.00 0.00 79 1028.9
20200222052118 22 71 0.0 0.0 0.00 0.00 0.00 79 1029.0
20200222051630 22 71 0.0 0.0 0.00 0.00 0.00 78 1029.0
20200222051137 22 71 0.0 0.0 0.00 0.00 0.00 78 1029.1
20200222050623 22 71 0.0 1.0 0.00 0.00 0.00 78 1029.1
20200222050129 22 71 0.0 1.0 0.00 0.00 0.00 79 1029.2
20200222045634 22 75 0.0 0.0 0.00 0.00 0.00 80 1029.2
20200222045124 22 75 0.0 0.0 0.00 0.00 0.00 79 1029.3
20200222044620 22 75 0.0 0.0 0.00 0.00 0.00 78 1029.3
20200222044131 22 75 0.0 0.0 0.00 0.00 0.00 77 1029.3
20200222043634 22 75 0.0 0.0 0.00 0.00 0.00 77 1029.4
20200222043139 23 75 0.0 0.0 0.00 0.00 0.00 76 1029.3
20200222042625 23 75 0.0 0.0 0.00 0.00 0.00 75 1029.4
20200222042135 23 75 0.0 0.0 0.00 0.00 0.00 75 1029.5
20200222041621 24 75 0.0 0.0 0.00 0.00 0.00 74 1029.6
20200222041128 24 75 0.0 0.0 0.00 0.00 0.00 73 1029.5
20200222040620 25 75 0.0 0.0 0.00 0.00 0.00 71 1029.7
20200222040126 25 75 0.0 1.0 0.00 0.00 0.00 67 1029.7
20200222035615 25 75 0.0 2.0 0.00 0.00 0.00 66 1029.7
20200222035126 25 75 0.0 2.0 0.00 0.00 0.00 65 1029.8
20200222034631 26 75 0.0 0.0 0.00 0.00 0.00 66 1029.8
20200222033620 25 75 0.0 0.0 0.00 0.00 0.00 67 1030.0
20200222033124 25 75 0.0 0.0 0.00 0.00 0.00 69 1030.1
20200222032631 25 75 0.0 0.0 0.00 0.00 0.00 70 1030.2
20200222032137 25 75 0.0 0.0 0.00 0.00 0.00 68 1030.1
20200222031622 25 75 0.0 1.0 0.00 0.00 0.00 66 1030.2
20200222031132 25 75 0.0 1.0 0.00 0.00 0.00 67 1030.1
20200222030621 25 77 0.0 0.0 0.00 0.00 0.00 70 1030.2
20200222030128 25 77 0.0 0.0 0.00 0.00 0.00 70 1030.2
20200222025634 25 78 0.0 0.0 0.00 0.00 0.00 72 1030.3
20200222025121 25 77 0.0 0.0 0.00 0.00 0.00 69 1030.4
20200222024629 25 77 0.0 0.0 0.00 0.00 0.00 68 1030.4
20200222024135 26 77 0.0 0.0 0.00 0.00 0.00 67 1030.4
20200222023619 26 77 0.0 0.0 0.00 0.00 0.00 67 1030.3
20200222023134 26 77 0.0 1.0 0.00 0.00 0.00 65 1030.5
20200222022636 26 77 0.0 1.0 0.00 0.00 0.00 65 1030.6
20200222022141 26 77 0.0 1.0 0.00 0.00 0.00 65 1030.6
20200222021629 26 77 0.0 0.0 0.00 0.00 0.00 64 1030.5
20200222021122 27 77 0.0 0.0 0.00 0.00 0.00 63 1030.6
20200222020628 27 77 0.0 0.0 0.00 0.00 0.00 63 1030.5
20200222020131 27 77 0.0 0.0 0.00 0.00 0.00 63 1030.7
20200222015638 27 77 0.0 0.0 0.00 0.00 0.00 59 1030.7
20200222015126 28 77 0.0 0.0 0.00 0.00 0.00 60 1030.8
20200222014630 28 77 0.0 0.0 0.00 0.00 0.00 58 1030.7
20200222014133 28 77 0.0 0.0 0.00 0.00 0.00 55 1030.7
20200222013636 28 77 0.0 0.0 0.00 0.00 0.00 55 1030.7
20200222013120 28 78 0.0 0.0 0.00 0.00 0.00 57 1030.7
20200222012634 28 78 0.0 0.0 0.00 0.00 0.00 56 1030.7
20200222012132 28 77 0.0 0.0 0.00 0.00 0.00 57 1030.8
20200222011641 28 77 0.0 0.0 0.00 0.00 0.00 56 1030.8
20200222011128 28 77 0.0 0.0 0.00 0.00 0.00 56 1030.8
20200222010627 28 77 0.0 0.0 0.00 0.00 0.00 57 1030.9
20200222010135 29 77 0.0 0.0 0.00 0.00 0.00 55 1030.8
20200222005639 29 77 0.0 0.0 0.00 0.00 0.00 51 1030.8
20200222005125 29 77 0.0 0.0 0.00 0.00 0.00 52 1030.8
20200222004632 30 77 0.0 0.0 0.00 0.00 0.00 52 1030.9
20200222004140 30 77 0.0 0.0 0.00 0.00 0.00 50 1030.8
20200222003625 30 77 0.0 0.0 0.00 0.00 0.00 50 1030.9
20200222003131 30 77 0.0 0.0 0.00 0.00 0.00 51 1030.9
20200222002637 30 79 0.0 0.0 0.00 0.00 0.00 52 1030.9
20200222002125 30 79 0.0 0.0 0.00 0.00 0.00 50 1030.8
20200222001626 30 79 0.0 0.0 0.00 0.00 0.00 51 1030.8
20200222001134 31 79 0.0 0.0 0.00 0.00 0.00 47 1030.8
20200222000626 31 79 0.0 0.0 0.00 0.00 0.00 46 1030.7
20200222000134 31 79 0.0 0.0 0.00 0.00 0.00 44 1030.8
20200221235640 32 79 0.0 0.0 0.00 0.00 0.00 43 1030.7
20200221235132 32 79 0.0 0.0 0.00 0.00 0.00 44 1030.7
20200221234627 32 79 0.0 0.0 0.00 0.00 0.00 42 1030.6
20200221234131 32 79 0.0 0.0 0.00 0.00 0.00 42 1030.6
20200221233637 32 79 0.0 0.0 0.00 0.00 0.00 41 1030.4
20200221233122 33 79 0.0 0.0 0.00 0.00 0.00 42 1030.4
20200221232636 33 79 0.0 0.0 0.00 0.00 0.00 41 1030.3
20200221232125 34 79 0.0 0.0 0.00 0.00 0.00 41 1030.4
20200221231631 34 79 0.0 0.0 0.00 0.00 0.00 40 1030.4
20200221231134 34 79 0.0 0.0 0.00 0.00 0.00 38 1030.2
20200221230625 35 79 0.0 0.0 0.00 0.00 0.00 38 1030.2
20200221230127 35 79 0.0 0.0 0.00 0.00 0.00 37 1030.3
20200221225639 36 79 0.0 0.0 0.00 0.00 0.00 37 1030.2
20200221225125 36 79 0.0 0.0 0.00 0.00 0.00 37 1030.3
20200221224632 36 79 0.0 0.0 0.00 0.00 0.00 36 1030.3
20200221224120 36 79 0.0 0.0 0.00 0.00 0.00 36 1030.2
20200221223627 37 79 0.0 0.0 0.00 0.00 0.00 36 1030.2
20200221223138 37 79 0.0 0.0 0.00 0.00 0.00 36 1030.2
20200221222639 37 79 0.0 0.0 0.00 0.00 0.00 36 1030.2
20200221222127 37 79 0.0 0.0 0.00 0.00 0.00 36 1030.3
20200221221630 38 79 0.0 0.0 0.00 0.00 0.00 36 1030.3
20200221221128 38 79 0.0 0.0 0.00 0.00 0.00 36 1030.3
20200221220625 38 79 0.0 0.0 0.00 0.00 0.00 35 1030.4
20200221220132 38 101 0.0 0.0 0.00 0.00 0.00 34 1030.4
20200221215623 38 100 0.0 2.0 0.00 0.00 0.00 36 1030.4
20200221215131 39 101 0.0 4.0 0.00 0.00 0.00 35 1030.4
20200221214616 40 101 1.0 4.0 0.00 0.00 0.00 34 1030.4
20200221214128 41 110 0.0 4.0 0.00 0.00 0.00 33 1030.4
20200221213634 41 33 0.0 3.0 0.00 0.00 0.00 32 1030.5
20200221213122 41 36 0.0 1.0 0.00 0.00 0.00 33 1030.6
20200221212630 40 36 0.0 1.0 0.00 0.00 0.00 33 1030.5
20200221212123 40 36 0.0 3.0 0.00 0.00 0.00 34 1030.6
20200221211630 40 36 0.0 5.0 0.00 0.00 0.00 34 1030.7
20200221211122 39 118 0.0 5.0 0.00 0.00 0.00 36 1030.7
20200221210632 39 105 1.0 4.0 0.00 0.00 0.00 34 1030.6
20200221210120 39 89 1.0 5.0 0.00 0.00 0.00 34 1030.7
20200221205623 39 122 0.0 4.0 0.00 0.00 0.00 34 1030.8
20200221205127 40 90 0.0 4.0 0.00 0.00 0.00 34 1030.9
20200221204636 40 53 1.0 3.0 0.00 0.00 0.00 35 1030.8
20200221204122 40 26 0.0 4.0 0.00 0.00 0.00 35 1030.9
20200221203631 40 24 1.0 4.0 0.00 0.00 0.00 35 1030.9
20200221203123 39 71 0.0 4.0 0.00 0.00 0.00 36 1031.0
20200221202629 39 27 1.0 4.0 0.00 0.00 0.00 36 1031.1
20200221202139 39 75 1.0 5.0 0.00 0.00 0.00 37 1031.2
20200221201625 39 349 1.0 5.0 0.00 0.00 0.00 35 1031.2
20200221201142 39 316 1.0 7.0 0.00 0.00 0.00 36 1031.3
20200221200628 38 25 0.0 7.0 0.00 0.00 0.00 37 1031.3
20200221200135 38 359 2.0 7.0 0.00 0.00 0.00 37 1031.3
20200221195636 39 105 2.0 7.0 0.00 0.00 0.00 37 1031.3
20200221195120 39 56 3.0 7.0 0.00 0.00 0.00 37 1031.3
20200221194616 39 88 4.0 7.0 0.00 0.00 0.00 37 1031.3
20200221194128 38 86 0.0 8.0 0.00 0.00 0.00 38 1031.4
20200221193638 38 91 5.0 8.0 0.00 0.00 0.00 38 1031.4
20200221193125 38 42 1.0 4.0 0.00 0.00 0.00 39 1031.4
20200221192633 38 34 0.0 3.0 0.00 0.00 0.00 38 1031.5
20200221192119 38 82 0.0 7.0 0.00 0.00 0.00 39 1031.6
20200221191623 38 65 3.0 7.0 0.00 0.00 0.00 38 1031.6
20200221191131 38 4 0.0 5.0 0.00 0.00 0.00 39 1031.6
20200221190637 37 21 1.0 7.0 0.00 0.00 0.00 39 1031.8
20200221190126 37 66 2.0 7.0 0.00 0.00 0.00 39 1031.8
20200221185627 37 108 1.0 6.0 0.00 0.00 0.00 40 1032.0
20200221185138 37 122 2.0 6.0 0.00 0.00 0.00 39 1032.0
20200221184627 36 61 2.0 12.0 0.00 0.00 0.00 41 1032.1
20200221184133 36 69 2.0 12.0 0.00 0.00 0.00 42 1032.1
20200221183639 36 115 2.0 8.0 0.00 0.00 0.00 42 1032.2
20200221183123 36 101 3.0 9.0 0.00 0.00 0.00 41 1032.3
20200221182629 36 113 1.0 5.0 0.00 0.00 0.00 42 1032.3
20200221182141 36 40 1.0 9.0 0.00 0.00 0.00 43 1032.4
20200221181629 36 62 4.0 9.0 0.00 0.00 0.00 41 1032.5
20200221181136 35 133 2.0 7.0 0.00 0.00 0.00 44 1032.5
20200221180626 35 73 2.0 8.0 0.00 0.00 0.00 44 1032.6
20200221180133 34 56 2.0 7.0 0.00 0.00 0.00 44 1032.7
20200221175622 34 91 2.0 6.0 0.00 0.00 0.00 43 1032.8
20200221175131 34 114 3.0 7.0 0.00 0.00 0.00 45 1032.8
20200221174630 34 84 3.0 8.0 0.00 0.00 0.00 46 1032.9
20200221174137 34 101 5.0 8.0 0.00 0.00 0.00 44 1032.9
20200221173622 34 45 3.0 8.0 0.00 0.00 0.00 47 1033.0
20200221173129 34 86 4.0 9.0 0.00 0.00 0.00 47 1033.1
20200221172636 34 86 3.0 9.0 0.00 0.00 0.00 48 1033.1
20200221172123 33 57 4.0 8.0 0.00 0.00 0.00 49 1033.1
20200221171636 33 122 2.0 8.0 0.00 0.00 0.00 47 1033.3
20200221171122 33 13 3.0 9.0 0.00 0.00 0.00 49 1033.3
20200221170629 33 114 5.0 9.0 0.00 0.00 0.00 48 1033.3
20200221170116 33 28 3.0 7.0 0.00 0.00 0.00 50 1033.4
20200221165626 32 88 3.0 6.0 0.00 0.00 0.00 50 1033.4
20200221165125 32 358 3.0 7.0 0.00 0.00 0.00 52 1033.6
20200221164632 32 106 1.0 7.0 0.00 0.00 0.00 51 1033.6
20200221164141 31 57 2.0 6.0 0.00 0.00 0.00 53 1033.7
20200221163629 31 56 3.0 12.0 0.00 0.00 0.00 52 1033.7
20200221163135 31 89 4.0 12.0 0.00 0.00 0.00 53 1033.7
20200221162625 30 53 1.0 9.0 0.00 0.00 0.00 54 1033.7
20200221162132 30 60 4.0 9.0 0.00 0.00 0.00 52 1033.8
20200221161640 30 94 2.0 8.0 0.00 0.00 0.00 52 1033.7
20200221161125 30 30 4.0 9.0 0.00 0.00 0.00 53 1033.7
20200221160630 30 120 2.0 9.0 0.00 0.00 0.00 54 1033.7
20200221160136 30 53 1.0 8.0 0.00 0.00 0.00 54 1033.8
20200221155623 30 60 2.0 8.0 0.00 0.00 0.00 54 1033.8
20200221155141 30 112 3.0 7.0 0.00 0.00 0.00 54 1033.8
20200221154626 29 101 2.0 5.0 0.00 0.00 0.00 55 1033.8
20200221154117 29 77 1.0 7.0 0.00 0.00 0.00 55 1033.9
20200221153639 29 37 2.0 13.0 0.00 0.00 0.00 57 1033.9
20200221153125 28 1 1.0 13.0 0.00 0.00 0.00 58 1033.9
20200221152638 28 115 5.0 8.0 0.00 0.00 0.00 57 1033.8
20200221152123 28 78 1.0 6.0 0.00 0.00 0.00 58 1033.8
20200221151634 27 92 1.0 8.0 0.00 0.00 0.00 58 1033.8
20200221151141 27 56 2.0 9.0 0.00 0.00 0.00 58 1033.9
20200221150628 27 46 4.0 9.0 0.00 0.00 0.00 58 1033.9
20200221150135 27 91 1.0 9.0 0.00 0.00 0.00 58 1033.8
20200221145641 27 56 3.0 9.0 0.00 0.00 0.00 59 1033.9
20200221145131 27 74 3.0 9.0 0.00 0.00 0.00 59 1033.9
20200221144639 27 60 2.0 7.0 0.00 0.00 0.00 59 1033.8
20200221144137 26 66 2.0 8.0 0.00 0.00 0.00 59 1033.9
20200221143623 26 113 1.0 6.0 0.00 0.00 0.00 59 1033.8
20200221143123 26 78 0.0 7.0 0.00 0.00 0.00 59 1033.8
20200221142630 26 101 3.0 11.0 0.00 0.00 0.00 59 1033.8
20200221142140 26 339 1.0 11.0 0.00 0.00 0.00 60 1033.8
20200221141628 25 56 3.0 10.0 0.00 0.00 0.00 60 1033.9
20200221141136 25 359 1.0 5.0 0.00 0.00 0.00 61 1033.9
20200221140622 25 2 1.0 4.0 0.00 0.00 0.00 61 1034.0
20200221140129 25 8 1.0 4.0 0.00 0.00 0.00 61 1033.9
20200221135622 24 37 1.0 7.0 0.00 0.00 0.00 61 1033.9
20200221135128 24 27 3.0 9.0 0.00 0.00 0.00 62 1033.8